• In France
  • List of Countries
  • For 7 days
  • Water Temperature
  • Satellite Maps
  • Weather Map
  • Weather Widgets
  • user-avatar
    Login

    Hourly Weather Sharan

    Today, 20 November, Monday

    Time Temperature Precipitation Wind Pressure Humidity
    00:00 +2°C° 0 mm 1 mps 586 mmHg 33%
    01:00 +2°C° 0 mm 1 mps 586 mmHg 33%
    02:00 +2°C° 0 mm 1 mps 585 mmHg 33%
    03:00 +2°C° 0 mm 1 mps 585 mmHg 33%
    04:00 -1°C° 0 mm 2 mps 585 mmHg 32%
    05:00 -1°C° 0 mm 2 mps 585 mmHg 33%
    06:00 -1°C° 0 mm 2 mps 585 mmHg 33%
    07:00 -1°C° 0 mm 2 mps 586 mmHg 32%
    08:00 +1°C° 0 mm 2 mps 586 mmHg 31%
    09:00 +3°C° 0 mm 1 mps 587 mmHg 28%
    10:00 +5°C° 0 mm 1 mps 587 mmHg 25%
    11:00 +7°C° 0 mm 1 mps 588 mmHg 21%
    12:00 +7°C° 0 mm 1 mps 588 mmHg 20%
    13:00 +8°C° 0 mm 1 mps 588 mmHg 18%
    14:00 +9°C° 0 mm 1 mps 588 mmHg 17%
    15:00 +8°C° 0 mm 1 mps 587 mmHg 19%
    16:00 +7°C° 0 mm 1 mps 587 mmHg 21%
    17:00 +6°C° 0 mm 1 mps 586 mmHg 24%
    18:00 +5°C° 0 mm 1 mps 586 mmHg 25%
    19:00 +3°C° 0 mm 0 mps 586 mmHg 26%
    20:00 +2°C° 0 mm 0 mps 586 mmHg 27%
    21:00 +2°C° 0 mm 0 mps 585 mmHg 27%
    22:00 +3°C° 0 mm 1 mps 585 mmHg 27%
    23:00 +2°C° 0 mm 1 mps 585 mmHg 27%

    Tomorrow, 21 November, Tuesday

    Time Temperature Precipitation Wind Pressure Humidity
    00:00 +2°C° 0 mm 1 mps 585 mmHg 26%
    01:00 +2°C° 0 mm 1 mps 585 mmHg 25%
    02:00 +2°C° 0 mm 1 mps 584 mmHg 24%
    03:00 +1°C° 0 mm 1 mps 584 mmHg 24%
    04:00 +1°C° 0 mm 1 mps 584 mmHg 23%
    05:00 -1°C° 0 mm 2 mps 584 mmHg 22%
    06:00 -1°C° 0 mm 2 mps 584 mmHg 22%
    07:00 +1°C° 0 mm 2 mps 585 mmHg 22%
    08:00 +1°C° 0 mm 2 mps 585 mmHg 21%
    09:00 +4°C° 0 mm 1 mps 586 mmHg 18%
    10:00 +5°C° 0 mm 1 mps 587 mmHg 16%
    11:00 +7°C° 0 mm 1 mps 587 mmHg 13%
    12:00 +8°C° 0 mm 1 mps 587 mmHg 13%
    13:00 +9°C° 0 mm 1 mps 587 mmHg 12%
    14:00 +9°C° 0 mm 1 mps 587 mmHg 11%
    15:00 +8°C° 0 mm 1 mps 586 mmHg 14%
    16:00 +7°C° 0 mm 1 mps 586 mmHg 17%
    17:00 +6°C° 0 mm 1 mps 585 mmHg 20%
    18:00 +5°C° 0 mm 1 mps 585 mmHg 21%
    19:00 +4°C° 0 mm 1 mps 585 mmHg 21%
    20:00 +2°C° 0 mm 0 mps 584 mmHg 22%
    21:00 +2°C° 0 mm 0 mps 584 mmHg 22%
    22:00 +2°C° 0 mm 0 mps 584 mmHg 22%
    23:00 +1°C° 0 mm 0 mps 584 mmHg 22%

    Day after tomorrow, 22 November, Wednesday

    Time Temperature Precipitation Wind Pressure Humidity
    00:00 +1°C° 0 mm 0 mps 584 mmHg 22%
    01:00 +1°C° 0 mm 0 mps 584 mmHg 21%
    02:00 +2°C° 0 mm 1 mps 583 mmHg 21%
    03:00 +1°C° 0 mm 1 mps 583 mmHg 21%
    04:00 +1°C° 0 mm 1 mps 583 mmHg 21%
    05:00 +1°C° 0 mm 1 mps 583 mmHg 20%
    06:00 +1°C° 0 mm 1 mps 583 mmHg 20%
    07:00 +2°C° 0 mm 1 mps 584 mmHg 19%
    08:00 +2°C° 0 mm 1 mps 584 mmHg 19%
    09:00 +4°C° 0 mm 1 mps 585 mmHg 16%
    10:00 +6°C° 0 mm 1 mps 586 mmHg 13%
    11:00 +9°C° 0 mm 1 mps 587 mmHg 10%
    12:00 +9°C° 0 mm 1 mps 587 mmHg 10%
    13:00 +10°C° 0 mm 1 mps 587 mmHg 10%
    14:00 +11°C° 0 mm 1 mps 587 mmHg 10%
    15:00 +9°C° 0 mm 1 mps 586 mmHg 13%
    16:00 +8°C° 0 mm 1 mps 586 mmHg 16%
    17:00 +7°C° 0 mm 1 mps 585 mmHg 19%
    18:00 +6°C° 0 mm 0 mps 585 mmHg 19%
    19:00 +5°C° 0 mm 0 mps 585 mmHg 20%
    20:00 +4°C° 0 mm 0 mps 585 mmHg 21%
    21:00 +4°C° 0 mm 0 mps 585 mmHg 21%
    22:00 +3°C° 0 mm 0 mps 584 mmHg 20%
    23:00 +3°C° 0 mm 0 mps 584 mmHg 20%

    23 November, Thursday

    Time Temperature Precipitation Wind Pressure Humidity
    00:00 +3°C° 0 mm 0 mps 584 mmHg 20%
    01:00 +3°C° 0 mm 0 mps 584 mmHg 20%
    02:00 +3°C° 0 mm 1 mps 583 mmHg 19%
    03:00 +3°C° 0 mm 1 mps 583 mmHg 19%
    04:00 +3°C° 0 mm 1 mps 583 mmHg 19%
    05:00 +3°C° 0 mm 1 mps 582 mmHg 18%
    06:00 +3°C° 0 mm 1 mps 583 mmHg 18%
    07:00 +3°C° 0 mm 1 mps 583 mmHg 18%
    08:00 +3°C° 0 mm 0 mps 583 mmHg 17%
    09:00 +6°C° 0 mm 1 mps 585 mmHg 15%
    10:00 +8°C° 0 mm 1 mps 586 mmHg 13%
    11:00 +10°C° 0 mm 1 mps 587 mmHg 10%
    12:00 +9°C° 0 mm 2 mps 586 mmHg 11%
    13:00 +10°C° 0 mm 2 mps 586 mmHg 11%
    14:00 +10°C° 0 mm 3 mps 586 mmHg 12%
    15:00 +10°C° 0 mm 2 mps 586 mmHg 14%
    16:00 +9°C° 0 mm 2 mps 586 mmHg 16%
    17:00 +8°C° 0 mm 2 mps 585 mmHg 18%
    18:00 +9°C° 0 mm 1 mps 585 mmHg 20%
    19:00 +8°C° 0 mm 1 mps 585 mmHg 22%
    20:00 +7°C° 0 mm 1 mps 585 mmHg 24%
    21:00 +5°C° 0 mm 0 mps 585 mmHg 26%
    22:00 +5°C° 0 mm 0 mps 585 mmHg 27%
    23:00 +4°C° 0 mm 0 mps 585 mmHg 28%

    24 November, Friday

    Time Temperature Precipitation Wind Pressure Humidity
    00:00 +4°C° 0 mm 0 mps 585 mmHg 29%
    01:00 +3°C° 0 mm 0 mps 584 mmHg 30%
    02:00 +3°C° 0 mm 0 mps 584 mmHg 31%
    03:00 +3°C° 0 mm 0 mps 584 mmHg 31%
    04:00 +4°C° 0 mm 1 mps 584 mmHg 32%
    05:00 +3°C° 0 mm 1 mps 583 mmHg 32%
    06:00 +4°C° 0 mm 1 mps 584 mmHg 31%
    07:00 +4°C° 0 mm 1 mps 585 mmHg 30%
    08:00 +4°C° 0 mm 1 mps 585 mmHg 29%
    09:00 +5°C° 0 mm 0 mps 586 mmHg 26%
    10:00 +7°C° 0 mm 0 mps 587 mmHg 23%
    11:00 +9°C° 0 mm 0 mps 588 mmHg 20%
    12:00 +11°C° 0 mm 1 mps 588 mmHg 20%
    13:00 +11°C° 0 mm 1 mps 588 mmHg 20%
    14:00 +12°C° 0 mm 1 mps 588 mmHg 21%
    15:00 +11°C° 0 mm 1 mps 587 mmHg 24%
    16:00 +11°C° 0 mm 1 mps 587 mmHg 27%
    17:00 +10°C° 0 mm 1 mps 586 mmHg 29%
    18:00 +9°C° 0 mm 1 mps 586 mmHg 32%
    19:00 +7°C° 0 mm 0 mps 586 mmHg 34%
    20:00 +7°C° 0 mm 0 mps 586 mmHg 36%
    21:00 +7°C° 0 mm 0 mps 586 mmHg 36%
    22:00 +7°C° 0 mm 0 mps 586 mmHg 36%
    23:00 +7°C° 0 mm 0 mps 587 mmHg 36%

    25 November, Saturday

    Time Temperature Precipitation Wind Pressure Humidity
    00:00 +6°C° 0 mm 0 mps 586 mmHg 38%
    01:00 +6°C° 0 mm 0 mps 586 mmHg 39%
    02:00 +5°C° 0 mm 0 mps 585 mmHg 40%
    03:00 +5°C° 0 mm 0 mps 585 mmHg 41%
    04:00 +5°C° 0 mm 0 mps 585 mmHg 41%
    05:00 +5°C° 0 mm 0 mps 585 mmHg 41%
    06:00 +5°C° 0 mm 0 mps 585 mmHg 41%
    07:00 +6°C° 0 mm 1 mps 586 mmHg 41%
    08:00 +6°C° 0 mm 1 mps 586 mmHg 41%
    09:00 +8°C° 0 mm 1 mps 587 mmHg 37%
    10:00 +9°C° 0 mm 1 mps 587 mmHg 34%
    11:00 +9°C° 0 mm 2 mps 588 mmHg 31%
    12:00 +10°C° 0 mm 2 mps 588 mmHg 32%
    13:00 +11°C° 0 mm 3 mps 587 mmHg 33%
    14:00 +11°C° 0 mm 3 mps 587 mmHg 34%
    15:00 +11°C° 0 mm 3 mps 587 mmHg 37%
    16:00 +10°C° 0 mm 2 mps 587 mmHg 39%
    17:00 +10°C° 0 mm 2 mps 587 mmHg 42%
    18:00 +10°C° 0.2 mm 1 mps 587 mmHg 47%
    19:00 +9°C° 0.2 mm 1 mps 587 mmHg 52%
    20:00 +8°C° 0.2 mm 1 mps 587 mmHg 57%
    21:00 +8°C° 0.2 mm 1 mps 587 mmHg 60%
    22:00 +8°C° 0.2 mm 1 mps 587 mmHg 63%
    23:00 +7°C° 0.2 mm 1 mps 587 mmHg 66%
    Show more